View from above orbital plane
|
View from above satellite
|
Ground track
|
The orbit data is extracted from the following two-line orbital elements,
1 25134U 98002A 21025.55232938 -.00000072 00000-0 00000-0 0 9991
2 25134 11.5297 22.1699 0003061 44.6154 172.2253 0.99151349 83852
Epoch (UTC): | 25 January 2021 13:15:21 |
Eccentricity: | 0.0003061 |
inclination: | 11.5297° |
perigee height: | 36090 km |
apogee height: | 36116 km |
right ascension of ascending node: | 22.1699° |
argument of perigee: | 44.6154° |
revolutions per day: | 0.99151349 |
mean anomaly at epoch: | 172.2253° |
orbit number at epoch: | 8385 |
The dashed part of the orbit path shows where the satellite is in the earth's shadow,
|
|